CZ-6A DEB, 60703

Orbit data source: Space-Track

CZ-6A DEB, 60703 is space debris in LEO originally from a launch on Tue, 06 Aug 2024 UTC launched from the Taiyaun Space Center, China (TSC). Debris objects in space refer to the collection of defunct objects orbiting the Earth. Examples of debris include non-operational satellites, rocket bodies, and fragments generated from explosions, collisions, or faulty payload assembly.

Loading next visibility...
Identifier
60703, 2024-140DG
Orbit
LEO
Country
Flag of CNCN / PRC
Related business
Manufacturer
SAST
Mission
Spacecraft
Bus & Motor
Unknown
Mass
Unknown
Launch date (UTC)
2024-08-06 (2 years ago)
Launch vehicle
Unknown
Launch site
Taiyaun Space Center, China (TSC)
Object type
Payload
Rocket body
Debris
Shape & HBR
Unknown shape, 0.1 m
Radar Cross Section
Medium (>0.1 m² and <1 m²)

Expand to show TLE details & history
Last TLE update: 13 hours ago

TLE from 13 hours ago
0 CZ-6A DEB
1 60703U 24140DG  26171.36204052  .00000859  00000-0  32208-3 0  9996
2 60703  89.4120 306.6324 0111488  68.9177 292.3894 14.27469220 96499
Epoch: 2026-06-20T08:41Z
TLE epoch observation values (Epoch: 2026-06-20T08:41:20.300Z)
Latitude
-0.00012°
Longitude
-92.27994°
Altitude
773.546 km
Speed
7.483 km/s
True Right ascension
20h 26m 31s
True Declination
0° 00' 00"
Sunlit
Object was in full shadow at epoch
Visualization orbit readout
Latitude
Unknown
Longitude
Unknown
Altitude
Unknown
Speed
Unknown
Apparent Right ascension
Unknown
Apparent Declination
Unknown
Sunlit
N/A
Visualization observer readout
Local Sidereal Time
08:42:03
Azimuth
Unknown
Elevation
Unknown
Doppler factor
Unknown
Orbital elements
Apogee altitude
877.137 km
Perigee altitude
717.145 km
Semi-major axis
7,175.278 km
Eccentricity
0.01115
Inclination
89.412°
RAAN
306.6324°
Arg. of periapsis
68.9177°
True anomaly
291.20193°
Mean anomaly
292.3894°
Eccentric anomaly
291.79629°
Mean motion
3.57096 °/min
Orbital period
100.81 mins
BSTAR
0.00032208
Loading maneuver chart data...
Computing Atmospheric mass density...
Loading historical data...
Loading historical data...
Loading historical data...
Loading historical data...
Loading historical data...
Loading historical data...
Loading historical data...

Documentation

Showing up to 5 results
|